Location: Tr�vern
(48.0333°N, 4.6000°W)
Time: 18:01:12
(UTC+00:00)

COBE Rocket - Pass Details

Date: 14 July 2020
Orbit: 679 x 783 km, 97.1° (Epoch: 13 August)

Event Time Altitude Azimuth Distance (km) Brightness Sun altitude
Exits shadow 02:23:54 - 154° (SSE) 2,514 6.3 -15.4°
Reaches altitude 10° 02:24:30 10° 154° (SSE) 2,274 6.1 -15.3°
Maximum altitude 02:29:27 63° 74° (ENE) 825 4.3 -14.9°
Drops below altitude 10° 02:34:17 10° 354° (N) 2,225 7.2 -14.5°
Sets 02:36:33 0° 351° (N) 3,134 8.0 -14.3°
